TimeCEST,TemperatureF,Dew PointF,Humidity,Sea Level PressureIn,VisibilityMPH,Wind Direction,Wind SpeedMPH,Gust SpeedMPH,PrecipitationIn,Events,Conditions,WindDirDegrees,DateUTC
12:55 AM,66.2,62.6,88,29.80,5.0,ENE,6.9,-,N/A,,Scattered Clouds,70,2012-10-09 22:55:00
1:55 AM,64.4,60.8,88,29.80,6.2,North,5.8,-,N/A,,Scattered Clouds,10,2012-10-09 23:55:00
2:00 AM,64,61,86,29.82,6,North,5.8,,,,Partly Cloudy,10,2012-10-10 00:00:00
2:55 AM,62.6,60.8,94,29.80,6.2,NNE,8.1,-,N/A,,Mostly Cloudy,20,2012-10-10 00:55:00
3:55 AM,62.6,59.0,88,29.80,6.2,North,6.9,-,N/A,,Scattered Clouds,10,2012-10-10 01:55:00
5:00 AM,63,59,83,29.81,6,North,8.1,,,,Partly Cloudy,0,2012-10-10 03:00:00
5:55 AM,62.6,57.2,82,29.80,6.2,North,5.8,-,N/A,,Scattered Clouds,10,2012-10-10 03:55:00
6:55 AM,60.8,57.2,88,29.80,6.2,ENE,9.2,-,N/A,,Scattered Clouds,70,2012-10-10 04:55:00
8:00 AM,61,57,83,29.81,6,NNE,3.5,,,,Mist,20,2012-10-10 06:00:00
8:55 AM,60.8,57.2,88,29.80,5.0,NNE,6.9,-,N/A,,Partly Cloudy,20,2012-10-10 06:55:00
10:55 AM,71.6,62.6,73,29.83,6.2,WSW,2.3,-,N/A,,Partly Cloudy,240,2012-10-10 08:55:00
11:00 AM,71,63,68,29.84,9,WSW,2.3,,,,Scattered Clouds,240,2012-10-10 09:00:00
11:55 AM,73.4,60.8,65,29.83,6.2,WSW,4.6,-,N/A,,Scattered Clouds,240,2012-10-10 09:55:00
12:55 PM,75.2,60.8,61,29.83,6.2,SW,5.8,-,N/A,,Scattered Clouds,220,2012-10-10 10:55:00
1:55 PM,75.2,60.8,61,29.80,6.2,SSW,4.6,-,N/A,,Partly Cloudy,210,2012-10-10 11:55:00
2:00 PM,75,61,52,29.81,9,SSW,4.6,,,,Partly Cloudy,210,2012-10-10 12:00:00
2:55 PM,73.4,62.6,69,29.80,6.2,SSW,8.1,-,N/A,,Partly Cloudy,210,2012-10-10 12:55:00
3:55 PM,73.4,62.6,69,29.80,6.2,SW,9.2,-,N/A,,Partly Cloudy,220,2012-10-10 13:55:00
4:55 PM,71.6,64.4,78,29.77,6.2,SSW,6.9,-,N/A,,Partly Cloudy,210,2012-10-10 14:55:00
5:00 PM,72,64,69,29.79,9,SSW,6.9,,,,Partly Cloudy,210,2012-10-10 15:00:00
6:55 PM,69.8,64.4,83,29.77,6.2,SSE,3.5,-,N/A,,Partly Cloudy,150,2012-10-10 16:55:00
7:55 PM,68.0,64.4,88,29.77,6.2,SE,3.5,-,N/A,,Partly Cloudy,140,2012-10-10 17:55:00
8:00 PM,68,64,85,29.78,9,SE,3.5,,,,Scattered Clouds,140,2012-10-10 18:00:00
8:55 PM,64.4,60.8,88,29.77,6.2,NE,3.5,-,N/A,,Partly Cloudy,50,2012-10-10 18:55:00
9:55 PM,62.6,60.8,94,29.77,6.2,ENE,3.5,-,N/A,,Partly Cloudy,60,2012-10-10 19:55:00
10:55 PM,62.6,59.0,88,29.80,-9999.0,NNE,3.5,-,N/A,,Clear,30,2012-10-10 20:55:00
11:00 PM,63,60,85,29.81,9,NNE,3.5,,,,,30,2012-10-10 21:00:00
11:55 PM,62.6,59.0,88,29.80,-9999.0,North,4.6,-,N/A,,Clear,360,2012-10-10 21:55:00